Back to catalog

COSMOS 1312

AliveMilitaryPO
NORAD 12879·PAYLOAD·🇷🇺 Russia

Launched Sep 30, 1981 from Plesetsk Cosmodrome

Loading…

Next Passes (next 24 hours)

TLE

FreshSource: Space-Track

Epoch: Sep 14, 2026, 05:01 UTC

1 12879U 81098A   26257.20932642  .00000032  00000-0  15761-3 0  9991
2 12879  82.6046 172.1675 0005916 274.7837 239.1350 12.42393973580608

Track COSMOS 1312 in real time with AllMySat

Download on the App Store